Overview Statistics Trail Chart Weather Telemetry Raw packets
 

This is the latest recevied weather packets stored in our database for station/object N7WSS. If no packets are shown the sender has not sent any weather packets the latest 10 day(s).

<< 21 22 23 24 25 26 27 >>
Time Temp. Humidity Pressure Rain* Wind** Luminosity Snow
1788485870 28.33° C 54% 1012.3 hPa 0 mm - - -
1788485566 28.33° C 54% 1011.9 hPa 0 mm - - -
1788485262 28.33° C 55% 1011.9 hPa 0 mm - - -
1788484961 28.33° C 56% 1011.9 hPa 0 mm - - -
1788484660 27.78° C 56% 1011.7 hPa 0 mm - - -
1788484356 27.78° C 57% 1011.8 hPa 0 mm - - -
1788484051 28.33° C 57% 1011.9 hPa 0 mm - - -
1788483748 28.33° C 58% 1011.9 hPa 0 mm - - -
1788483447 28.33° C 57% 1011.9 hPa 0 mm - - -
1788483144 28.33° C 57% 1011.9 hPa 0 mm - - -
1788482838 28.89° C 57% 1011.9 hPa 0 mm - - -
1788482534 28.89° C 56% 1011.8 hPa 0 mm - - -
1788482228 28.89° C 55% 1011.8 hPa 0 mm - - -
1788481925 29.44° C 54% 1011.8 hPa 0 mm - - -
1788481620 29.44° C 54% 1011.7 hPa 0 mm - - -
1788481316 30° C 54% 1011.7 hPa 0 mm - - -
1788481011 30° C 53% 1011.7 hPa 0 mm - - -
1788480710 30° C 53% 1011.7 hPa 0 mm - - -
1788480405 30° C 53% 1011.7 hPa 0 mm - - -
1788480100 30° C 52% 1011.8 hPa 0 mm - - -
1788479800 30° C 52% 1011.8 hPa 0 mm - - -
1788479496 30° C 50% 1012.1 hPa 0 mm - - -
1788479190 30° C 49% 1012 hPa 0 mm - - -
1788478886 30° C 51% 1011.7 hPa 0 mm - - -
1788478583 30° C 53% 1011.8 hPa 0 mm - - -

* Rain latest hour (hover to see other rain measurements)
** Current wind speed in m/s (hover to see current wind gust speed)